FW1790 Weather Reports


time (UTC)temp
F
wind
direction
speed
knots
gust
knots
rain 1hr
in
rain 24hr
in
rain mn
in
humidity
%
barometer
mb
20210723163045 78 146 5.2 7.8 0.00 0.47 0.00 55 1024.8
20210723162611 78 136 4.3 7.8 0.00 0.47 0.00 55 1024.8
20210723162044 78 147 5.2 8.7 0.00 0.47 0.00 55 1024.9
20210723161641 78 129 5.2 7.8 0.00 0.47 0.00 55 1024.9
20210723161212 78 149 4.3 7.0 0.00 0.47 0.00 56 1025.0
20210723160714 77 134 4.3 7.0 0.00 0.47 0.00 56 1025.0
20210723160215 77 129 5.2 7.8 0.00 0.47 0.00 57 1025.0
20210723155743 77 140 6.1 7.8 0.00 0.47 0.00 56 1025.0
20210723155313 77 144 5.2 7.8 0.00 0.47 0.00 56 1025.0
20210723154843 77 133 2.6 5.2 0.00 0.47 0.00 60 1025.0
20210723154412 76 121 3.5 6.1 0.00 0.47 0.00 62 1025.0
20210723153911 76 154 6.1 9.6 0.00 0.47 0.00 61 1025.0
20210723153413 76 144 3.5 6.1 0.00 0.47 0.00 61 1025.0
20210723152943 75 149 3.5 7.8 0.00 0.47 0.00 60 1025.0
20210723152512 75 155 4.3 7.0 0.00 0.47 0.00 61 1025.0
20210723152046 75 152 4.3 7.0 0.00 0.47 0.00 62 1025.0
20210723151515 75 147 2.6 5.2 0.00 0.47 0.00 62 1025.0
20210723151015 75 143 2.6 4.3 0.00 0.47 0.00 62 1025.0
20210723150514 75 156 3.5 5.2 0.00 0.47 0.00 61 1025.0
20210723150012 75 171 4.3 7.0 0.00 0.47 0.00 60 1025.0
20210723145529 75 177 3.5 4.3 0.00 0.47 0.00 61 1025.0
20210723145012 74 146 5.2 7.0 0.00 0.47 0.00 62 1025.0
20210723144514 74 167 6.1 7.8 0.00 0.47 0.00 61 1025.0
20210723144014 74 174 6.1 10.4 0.00 0.47 0.00 62 1025.1
20210723143514 74 161 4.3 7.0 0.00 0.47 0.00 63 1025.0
20210723143043 74 163 5.2 7.8 0.00 0.47 0.00 63 1025.0
20210723142612 74 163 5.2 8.7 0.00 0.47 0.00 63 1025.0
20210723142110 74 164 3.5 6.1 0.00 0.47 0.00 64 1025.0
20210723141615 74 162 5.2 7.0 0.00 0.47 0.00 63 1024.9
20210723141111 74 155 2.6 4.3 0.00 0.47 0.00 64 1024.8
20210723140615 74 179 3.5 6.1 0.00 0.47 0.00 64 1024.9
20210723140109 73 150 3.5 4.3 0.00 0.47 0.00 65 1024.9
20210723135612 73 177 4.3 7.8 0.00 0.47 0.00 67 1024.9
20210723135111 73 158 4.3 9.6 0.00 0.47 0.00 68 1024.9
20210723134613 73 169 3.5 5.2 0.00 0.47 0.00 69 1024.8
20210723134112 73 170 4.3 7.8 0.00 0.47 0.00 68 1024.8
20210723133614 73 196 2.6 5.2 0.00 0.47 0.00 69 1024.9
20210723133112 72 136 3.5 5.2 0.00 0.47 0.00 70 1024.9
20210723132614 72 162 2.6 4.3 0.00 0.47 0.00 71 1024.9
20210723132114 72 141 1.7 2.6 0.00 0.47 0.00 72 1024.8
20210723131610 72 123 4.3 5.2 0.00 0.47 0.00 72 1024.8
20210723131113 72 153 3.5 7.0 0.00 0.47 0.00 71 1024.9
20210723130614 72 119 2.6 3.5 0.00 0.47 0.00 71 1024.9
20210723130113 72 149 3.5 4.3 0.00 0.47 0.00 70 1024.8
20210723125613 71 149 3.5 6.1 0.00 0.47 0.00 71 1024.8
20210723125112 71 189 5.2 7.0 0.00 0.47 0.00 72 1024.6
20210723124616 71 191 5.2 6.1 0.00 0.47 0.00 71 1024.5
20210723124115 71 195 3.5 5.2 0.00 0.47 0.00 71 1024.5
20210723123617 71 176 3.5 5.2 0.00 0.47 0.00 70 1024.4
20210723123114 71 182 4.3 8.7 0.00 0.47 0.00 69 1024.3
20210723122614 71 188 5.2 7.8 0.00 0.47 0.00 69 1024.3
20210723122115 71 170 4.3 7.8 0.00 0.47 0.00 69 1024.2
20210723121613 71 164 2.6 4.3 0.00 0.47 0.00 70 1024.2
20210723121114 71 142 2.6 4.3 0.00 0.47 0.00 69 1024.1
20210723120615 71 165 3.5 5.2 0.00 0.47 0.00 67 1024.1
20210723120112 71 152 3.5 6.1 0.00 0.47 0.00 67 1024.2
20210723115643 71 173 3.5 7.8 0.00 0.47 0.00 67 1024.1
20210723115114 71 167 3.5 7.0 0.00 0.47 0.00 67 1024.1
20210723114611 71 154 2.6 3.5 0.00 0.47 0.00 68 1024.1
20210723114110 72 164 4.3 7.0 0.00 0.47 0.00 67 1024.0
20210723113615 72 181 5.2 7.0 0.00 0.47 0.00 67 1024.0
20210723113111 71 159 3.5 5.2 0.00 0.47 0.00 69 1023.8
20210723112611 71 149 2.6 4.3 0.00 0.47 0.00 70 1023.8
20210723112115 72 162 3.5 5.2 0.00 0.47 0.00 70 1023.8
20210723111613 72 159 4.3 7.0 0.00 0.47 0.00 70 1023.8
20210723111112 72 163 3.5 6.1 0.00 0.47 0.00 70 1023.7
20210723110612 72 176 4.3 7.0 0.00 0.47 0.00 70 1023.7
20210723110112 72 189 4.3 7.0 0.00 0.47 0.00 70 1023.7
20210723105615 72 192 6.1 11.3 0.00 0.47 0.00 70 1023.7
20210723105111 72 195 4.3 6.1 0.00 0.47 0.00 69 1023.7
20210723104614 72 194 5.2 7.0 0.00 0.47 0.00 68 1023.7
20210723104113 72 174 4.3 6.1 0.00 0.47 0.00 67 1023.8
20210723103615 72 189 5.2 7.8 0.00 0.47 0.00 66 1024.0
20210723103110 72 181 4.3 7.0 0.00 0.47 0.00 67 1024.0
20210723102616 72 184 3.5 6.1 0.00 0.47 0.00 68 1023.8
20210723102113 72 163 4.3 6.1 0.00 0.47 0.00 68 1023.8
20210723101616 72 180 4.3 7.0 0.00 0.47 0.00 67 1023.8
20210723101112 72 162 4.3 7.0 0.00 0.47 0.00 67 1023.8
20210723100612 72 167 4.3 7.8 0.00 0.47 0.00 67 1023.8
20210723100141 72 177 3.5 7.0 0.00 0.47 0.00 67 1023.8
20210723095612 72 177 4.3 6.1 0.00 0.47 0.00 66 1023.8
20210723095113 72 173 4.3 6.1 0.00 0.47 0.00 66 1023.8
20210723094611 72 166 4.3 7.0 0.00 0.47 0.00 66 1023.8
20210723094113 72 170 4.3 6.1 0.00 0.47 0.00 66 1023.8
20210723093611 72 192 7.0 9.6 0.00 0.47 0.00 65 1023.8
20210723093142 72 187 4.3 7.8 0.00 0.47 0.00 66 1023.8
20210723092611 72 200 5.2 7.8 0.00 0.47 0.00 67 1023.8
20210723092110 72 190 5.2 7.8 0.00 0.47 0.00 67 1023.8
20210723091611 72 192 4.3 6.1 0.00 0.47 0.00 68 1023.8
20210723091110 71 192 6.1 7.8 0.00 0.47 0.00 68 1024.0
20210723090616 71 202 5.2 7.0 0.00 0.47 0.00 69 1024.0
20210723090113 71 172 3.5 5.2 0.00 0.47 0.00 70 1024.0
20210723085612 71 172 3.5 7.0 0.00 0.47 0.00 71 1024.0
20210723085115 71 173 3.5 6.1 0.00 0.47 0.00 71 1024.0
20210723084614 71 188 3.5 4.3 0.00 0.47 0.00 71 1023.8
20210723084113 71 189 2.6 4.3 0.00 0.47 0.00 71 1023.8
20210723083614 71 152 2.6 5.2 0.00 0.47 0.00 72 1024.0
20210723083144 71 151 2.6 2.6 0.00 0.47 0.00 71 1024.0
20210723082614 71 174 2.6 3.5 0.00 0.47 0.00 71 1024.0
20210723082112 71 177 2.6 3.5 0.00 0.47 0.00 72 1024.0
20210723081615 71 193 1.7 2.6 0.00 0.47 0.00 72 1023.8
20210723081115 71 170 0.9 1.7 0.00 0.47 0.00 73 1024.0
20210723080618 71 174 1.7 2.6 0.00 0.47 0.00 72 1024.0
20210723080113 71 153 0.9 2.6 0.00 0.47 0.00 73 1023.8
20210723075614 71 139 0.9 4.3 0.00 0.47 0.00 73 1023.8
20210723075112 71 146 2.6 3.5 0.00 0.47 0.00 73 1023.8
20210723074613 71 155 1.7 3.5 0.00 0.47 0.00 72 1023.8
20210723074113 71 145 3.5 5.2 0.00 0.47 0.00 72 1023.8
20210723073611 72 127 2.6 3.5 0.00 0.47 0.00 72 1023.7
20210723073113 72 131 2.6 4.3 0.00 0.47 0.00 70 1023.7
20210723072618 72 200 4.3 6.1 0.00 0.47 0.00 67 1023.8
20210723072110 72 135 2.6 3.5 0.00 0.47 0.00 68 1023.8
20210723071612 72 108 1.7 3.5 0.00 0.47 0.00 69 1023.8
20210723071112 73 117 1.7 2.6 0.00 0.47 0.00 66 1023.8
20210723070642 73 137 2.6 3.5 0.00 0.47 0.00 65 1024.0
20210723070113 73 169 2.6 4.3 0.00 0.47 0.00 64 1024.0
20210723065613 73 187 3.5 4.3 0.00 0.47 0.00 64 1024.0
20210723065113 73 194 3.5 4.3 0.00 0.47 0.00 64 1024.0
20210723064612 73 141 1.7 3.5 0.00 0.47 0.00 64 1024.1
20210723064109 74 186 3.5 5.2 0.00 0.47 0.00 63 1024.1
20210723063615 74 213 3.5 5.2 0.00 0.47 0.00 62 1024.1
20210723063112 73 197 3.5 5.2 0.00 0.47 0.00 62 1024.0
20210723062614 73 210 4.3 6.1 0.00 0.47 0.00 63 1023.8
20210723062113 74 213 3.5 4.3 0.00 0.47 0.00 63 1023.8
20210723061612 74 251 4.3 5.2 0.00 0.47 0.00 63 1023.8
20210723061111 74 235 4.3 5.2 0.00 0.47 0.00 63 1023.7
20210723060615 74 213 3.5 4.3 0.00 0.47 0.00 63 1023.7
20210723060112 74 220 3.5 5.2 0.00 0.47 0.00 64 1023.7
20210723055614 73 213 3.5 4.3 0.00 0.47 0.47 65 1023.8
20210723055114 73 208 3.5 5.2 0.00 0.47 0.47 66 1023.8
20210723054612 74 194 2.6 4.3 0.00 0.47 0.47 67 1023.8
20210723054110 74 229 2.6 2.6 0.00 0.47 0.47 66 1023.8
20210723053609 74 179 1.7 2.6 0.00 0.47 0.47 66 1024.0
20210723053115 74 135 0.9 1.7 0.00 0.47 0.47 66 1024.1
20210723052613 74 0 0.0 0.0 0.00 0.47 0.47 65 1024.1
20210723052112 74 50 2.6 3.5 0.00 0.47 0.47 65 1024.1
20210723051610 74 334 0.0 0.9 0.00 0.47 0.47 64 1024.2
20210723051112 74 225 0.0 1.7 0.00 0.47 0.47 63 1024.1
20210723050612 74 141 1.7 2.6 0.00 0.47 0.47 64 1024.0
20210723050113 74 163 1.7 2.6 0.00 0.47 0.47 63 1024.1
20210723045613 74 184 2.6 6.1 0.00 0.47 0.47 63 1024.2
20210723045112 74 196 4.3 5.2 0.00 0.47 0.47 63 1024.2
20210723044613 74 184 2.6 4.3 0.00 0.47 0.47 63 1024.2
20210723044113 75 190 6.1 7.8 0.00 0.47 0.47 62 1024.3
20210723043614 75 200 5.2 6.1 0.00 0.47 0.47 61 1024.3
20210723043115 75 180 1.7 2.6 0.00 0.47 0.47 61 1024.3
20210723042610 75 177 2.6 3.5 0.00 0.47 0.47 61 1024.3
20210723042112 74 165 2.6 5.2 0.00 0.47 0.47 61 1024.3
20210723041611 74 183 3.5 4.3 0.00 0.47 0.47 62 1024.3
20210723041113 74 156 1.7 3.5 0.00 0.47 0.47 63 1024.3
20210723040617 74 177 2.6 4.3 0.00 0.47 0.47 63 1024.3
20210723040113 74 209 2.6 5.2 0.00 0.47 0.47 65 1024.3
20210723035612 75 229 5.2 7.8 0.00 0.47 0.47 64 1024.3
20210723035114 75 197 10.4 13.9 0.00 0.47 0.47 62 1024.2
20210723034612 75 165 6.1 9.6 0.00 0.47 0.47 58 1024.2
20210723034111 74 263 2.6 7.0 0.00 0.47 0.47 65 1024.2
20210723033615 74 211 1.7 2.6 0.00 0.47 0.47 63 1024.1
20210723033114 75 219 5.2 8.7 0.00 0.47 0.47 62 1024.0
20210723032616 75 193 6.1 13.0 0.00 0.47 0.47 61 1023.8
20210723032113 75 167 6.1 10.4 0.00 0.47 0.47 61 1023.8
20210723031612 75 212 14.8 20.9 0.01 0.47 0.47 61 1023.7
20210723031144 75 171 3.5 5.2 0.01 0.47 0.47 60 1024.0
20210723030613 75 47 27.8 37.4 0.01 0.47 0.47 62 1023.8
20210723030112 75 47 24.3 33.9 0.06 0.47 0.47 61 1023.8
20210723025618 75 347 7.0 9.6 0.06 0.47 0.47 61 1023.7
20210723025114 74 6 6.1 7.8 0.40 0.47 0.47 69 1023.4
20210723024613 73 356 5.2 7.8 0.42 0.47 0.47 69 1023.0
20210723024110 72 246 1.7 2.6 0.43 0.47 0.47 70 1022.5
20210723023613 72 247 6.1 10.4 0.43 0.47 0.47 71 1022.1
20210723023113 71 261 7.0 8.7 0.43 0.47 0.47 74 1022.1
20210723022610 71 251 7.0 8.7 0.43 0.47 0.47 75 1022.1
20210723022112 71 234 6.1 7.8 0.43 0.47 0.47 74 1022.0
20210723021610 70 333 6.1 9.6 0.43 0.47 0.47 81 1022.0
20210723021114 70 214 4.3 6.1 0.43 0.47 0.47 81 1022.1
20210723020612 71 243 3.5 7.8 0.43 0.47 0.47 81 1022.4
20210723020112 72 302 2.6 8.7 0.42 0.46 0.46 77 1022.6
20210723015614 73 318 8.7 18.2 0.40 0.41 0.41 69 1022.5
20210723015112 76 329 6.1 9.6 0.27 0.27 0.27 67 1022.2
20210723014615 77 96 3.5 4.3 0.07 0.07 0.07 59 1022.2
20210723014115 78 201 7.8 13.0 0.04 0.05 0.05 55 1021.8
20210723013613 79 238 6.1 8.7 0.03 0.04 0.04 54 1021.4
20210723013115 80 223 8.7 13.0 0.03 0.04 0.04 51 1021.3
20210723012612 81 198 6.1 7.8 0.03 0.04 0.04 49 1021.4
20210723012111 81 184 4.3 7.0 0.03 0.04 0.04 48 1021.3
20210723011614 82 149 4.3 6.1 0.03 0.04 0.04 51 1021.1
20210723011112 85 337 1.7 4.3 0.04 0.04 0.04 46 1020.4
20210723010614 86 304 3.5 7.0 0.03 0.04 0.04 37 1020.2
20210723010114 87 258 5.2 6.1 0.03 0.03 0.03 37 1019.5
20210723005612 87 221 9.6 11.3 0.03 0.03 0.03 37 1019.0
20210723005112 89 193 7.8 13.0 0.01 0.01 0.01 34 1018.8
20210723004612 89 200 4.3 7.8 0.01 0.01 0.01 37 1018.6
20210723004112 89 179 4.3 7.8 0.01 0.01 0.01 35 1018.5
20210723003613 90 187 4.3 6.1 0.01 0.01 0.01 35 1018.6
20210723003115 91 176 5.2 9.6 0.01 0.01 0.01 33 1018.6
20210723002614 91 185 5.2 7.0 0.00 0.01 0.00 32 1018.6
20210723002114 92 194 5.2 6.1 0.00 0.01 0.00 32 1018.6
20210723001616 92 189 3.5 6.1 0.00 0.00 0.00 31 1018.6
20210723001112 92 186 4.3 7.0 0.00 0.00 0.00 31 1018.6
20210723000615 92 190 2.6 4.3 0.00 0.01 0.00 31 1018.5
20210723000143 92 203 3.5 5.2 0.00 0.01 0.00 31 1018.5
20210722235611 92 153 1.7 2.6 0.00 0.02 0.00 32 1018.6
20210722235111 91 176 2.6 5.2 0.00 0.03 0.00 32 1018.6
20210722234612 92 124 1.7 4.3 0.00 0.03 0.00 32 1018.7
20210722234113 92 126 2.6 4.3 0.00 0.03 0.00 32 1018.7
20210722233615 92 142 3.5 6.1 0.00 0.03 0.00 31 1018.6
20210722233116 92 189 3.5 6.1 0.00 0.03 0.00 30 1018.6
20210722232612 93 165 3.5 5.2 0.00 0.03 0.00 31 1018.5
20210722232112 93 296 1.7 1.7 0.00 0.03 0.00 29 1018.3
20210722231611 92 183 2.6 5.2 0.00 0.03 0.00 30 1018.3
20210722231110 92 25 1.7 2.6 0.00 0.03 0.00 30 1018.3
20210722230614 93 61 1.7 2.6 0.00 0.03 0.00 31 1018.3
20210722230113 93 352 1.7 2.6 0.00 0.03 0.00 31 1018.3
20210722225613 93 335 1.7 2.6 0.00 0.03 0.00 32 1018.3
20210722225129 92 62 2.6 4.3 0.00 0.03 0.00 31 1018.5
20210722224615 92 62 1.7 3.5 0.00 0.03 0.00 31 1018.6
20210722224115 93 161 4.3 6.1 0.00 0.03 0.00 31 1018.7
20210722223642 93 185 3.5 6.1 0.00 0.03 0.00 30 1018.8
20210722223114 93 325 1.7 3.5 0.00 0.03 0.00 30 1018.8
20210722222614 93 41 2.6 5.2 0.00 0.03 0.00 32 1018.9
20210722222115 93 24 4.3 7.0 0.00 0.03 0.00 31 1018.9
20210722221613 93 20 4.3 6.1 0.00 0.03 0.00 31 1019.0
20210722221112 93 36 1.7 2.6 0.00 0.03 0.00 32 1019.1
20210722220612 93 207 2.6 3.5 0.00 0.03 0.00 31 1019.3
20210722220115 93 164 5.2 7.0 0.00 0.03 0.00 31 1019.4
20210722215615 92 27 1.7 3.5 0.00 0.03 0.00 32 1019.5
20210722215114 92 133 2.6 4.3 0.00 0.03 0.00 32 1019.5
20210722214616 92 148 6.1 7.8 0.00 0.03 0.00 32 1019.5
20210722214142 92 175 4.3 7.8 0.00 0.03 0.00 32 1019.6
20210722213614 92 148 4.3 7.8 0.00 0.03 0.00 33 1019.6
20210722213112 92 109 3.5 6.1 0.00 0.03 0.00 32 1019.6
20210722212612 92 123 5.2 7.8 0.00 0.03 0.00 33 1019.6
20210722212114 93 66 1.7 3.5 0.00 0.03 0.00 33 1019.7
20210722211616 92 169 3.5 6.1 0.00 0.03 0.00 33 1019.8
20210722211111 92 171 3.5 6.1 0.00 0.03 0.00 33 1019.7
20210722210626 92 167 6.1 7.8 0.00 0.03 0.00 33 1019.8
20210722210113 91 233 1.7 5.2 0.00 0.03 0.00 33 1019.9
20210722205612 91 145 3.5 6.1 0.00 0.03 0.00 33 1020.1
20210722205112 91 138 3.5 6.1 0.00 0.03 0.00 34 1020.2
20210722204631 91 70 3.5 6.1 0.00 0.03 0.00 34 1020.2
20210722204113 90 116 2.6 4.3 0.00 0.03 0.00 35 1020.3
20210722203617 90 87 2.6 5.2 0.00 0.03 0.00 35 1020.4
20210722203110 89 121 4.3 7.8 0.00 0.03 0.00 34 1020.6
20210722202643 89 92 2.6 4.3 0.00 0.03 0.00 35 1020.6
20210722202110 90 170 5.2 8.7 0.00 0.03 0.00 35 1020.7
20210722201613 89 141 4.3 7.8 0.00 0.03 0.00 35 1020.9
20210722201111 88 148 1.7 4.3 0.00 0.03 0.00 36 1020.9
20210722200612 88 197 2.6 4.3 0.00 0.03 0.00 36 1021.0
20210722200113 88 174 5.2 8.7 0.00 0.03 0.00 37 1021.1
20210722195612 88 170 4.3 5.2 0.00 0.03 0.00 36 1021.1
20210722195115 89 167 4.3 7.0 0.00 0.03 0.00 36 1021.1
20210722194614 89 173 5.2 7.8 0.00 0.03 0.00 36 1021.1
20210722194116 89 73 1.7 3.5 0.00 0.03 0.00 37 1021.2
20210722193615 89 93 4.3 8.7 0.00 0.03 0.00 36 1021.3
20210722193115 89 137 3.5 7.8 0.00 0.03 0.00 36 1021.3
20210722192610 89 151 3.5 6.1 0.00 0.03 0.00 36 1021.3
20210722192112 89 162 6.1 7.8 0.00 0.03 0.00 36 1021.3
20210722191614 89 162 5.2 8.7 0.00 0.03 0.00 36 1021.4
20210722191114 89 115 3.5 6.1 0.00 0.03 0.00 36 1021.6
20210722190612 88 185 4.3 6.1 0.00 0.03 0.00 36 1021.6
20210722190117 88 148 3.5 7.0 0.00 0.03 0.00 37 1021.7
20210722185614 88 160 4.3 7.0 0.00 0.03 0.00 37 1021.8
20210722185113 88 176 6.1 8.7 0.00 0.03 0.00 38 1021.7
20210722184612 87 155 5.2 7.8 0.00 0.03 0.00 37 1021.8
20210722184113 87 161 6.1 8.7 0.00 0.03 0.00 38 1021.8
20210722183616 86 144 6.1 9.6 0.00 0.03 0.00 39 1021.9
20210722183143 86 157 5.2 7.8 0.00 0.03 0.00 39 1021.9
20210722182613 87 148 4.3 7.0 0.00 0.03 0.00 39 1021.9
20210722182113 87 151 6.1 7.8 0.00 0.03 0.00 38 1021.9
20210722181620 87 155 4.3 7.0 0.00 0.03 0.00 40 1021.9
20210722181115 87 161 6.1 8.7 0.00 0.03 0.00 39 1022.0
20210722180615 86 155 2.6 6.1 0.00 0.03 0.00 41 1022.0
20210722180110 85 152 5.2 7.8 0.00 0.03 0.00 40 1022.1
20210722175614 84 166 5.2 7.0 0.00 0.03 0.00 41 1022.1
20210722175115 85 163 4.3 7.8 0.00 0.03 0.00 41 1022.1
20210722174613 85 154 6.1 7.8 0.00 0.03 0.00 41 1022.1
20210722174110 85 173 6.1 7.8 0.00 0.03 0.00 41 1022.2
20210722173616 84 172 5.2 7.8 0.00 0.03 0.00 42 1022.2
20210722173112 84 149 5.2 7.8 0.00 0.03 0.00 42 1022.2
20210722172613 84 158 6.1 7.8 0.00 0.03 0.00 41 1022.2
20210722172114 84 125 2.6 5.2 0.00 0.03 0.00 43 1022.2
20210722171612 83 161 4.3 7.0 0.00 0.03 0.00 43 1022.2
20210722171115 83 155 5.2 9.6 0.00 0.03 0.00 42 1022.4
20210722170615 83 138 6.1 9.6 0.00 0.03 0.00 42 1022.4
20210722170113 83 166 6.1 8.7 0.00 0.03 0.00 42 1022.4
20210722165615 82 142 4.3 7.8 0.00 0.03 0.00 43 1022.4
20210722165111 82 158 5.2 7.0 0.00 0.03 0.00 44 1022.5
20210722164614 82 158 7.0 9.6 0.00 0.03 0.00 44 1022.5
20210722164112 82 172 5.2 11.3 0.00 0.03 0.00 45 1022.5
20210722163645 82 176 6.1 11.3 0.00 0.03 0.00 45 1022.5